7 * 24
多渠道服务支持
STARLINK-35804是美国太空探索技术公司(SpaceX)于2025年11月6日发射的星链(Starlink)系列卫星。星链项目旨在构建全球卫星互联网星座,为全球偏远地区等提供高速低延迟宽带网络,覆盖远洋、灾害应急、商业科研等多场景,弥补地面网络覆盖不足,该卫星是SpaceX星链巨型星座计划的组成部分,助力完善全球卫星互联网服务覆盖。
美国
(US)
| 数据来源 | 国际轨道数据 |
| 星历时间: | 2026-09-13T05:33:16+0800 8小时前 查看轨道信息 |
| 半长轴: | 6840.871km |
| 偏心率: | 0.0000833 |
| 轨道倾角: | 53.156° |
| 近地点辐角 | 90.148° |
| 升交点赤经 | 78.902° |
| 平近点角 | 269.962° |
| 近地点: | 462.164km |
| 远地点: | 463.304km |
| 周期: | 93.848分钟 |
| 每日圈数: | 15.343897 |